This is the latest recevied weather packets stored in our database for station/object OK1OBR-13. If no packets are shown the sender has not sent any weather packets the latest 1 day(s).
| Time | Temp. | Humidity | Pressure | Rain* | Wind** | Luminosity | Snow |
|---|---|---|---|---|---|---|---|
| 1778024941 | 12.22° C | 91% | 928.6 hPa | 0 mm | 0.89 m/s, 303° | - | - |
| 1778024881 | 12.22° C | 91% | 928.7 hPa | 0 mm | 0.89 m/s, 328° | - | - |
| 1778024821 | 12.22° C | 91% | 928.8 hPa | 0 mm | 0.89 m/s, 302° | - | - |
| 1778024761 | 12.22° C | 91% | 928.6 hPa | 0 mm | 0.89 m/s, 307° | - | - |
| 1778024701 | 12.22° C | 91% | 928.8 hPa | 0 mm | 0.89 m/s, 296° | - | - |
| 1778024640 | 12.22° C | 91% | 928.4 hPa | 0 mm | 0.89 m/s, 299° | - | - |
| 1778024581 | 12.22° C | 90% | 928.3 hPa | 0 mm | 0.89 m/s, 329° | - | - |
| 1778024521 | 12.22° C | 90% | 928.7 hPa | 0 mm | 1.79 m/s, 318° | - | - |
| 1778024462 | 12.22° C | 90% | 928.7 hPa | 0 mm | 1.79 m/s, 318° | - | - |
| 1778024401 | 12.22° C | 90% | 928.8 hPa | 0 mm | 0.89 m/s, 321° | - | - |
| 1778024341 | 12.22° C | 90% | 928.6 hPa | 0 mm | 0.89 m/s, 291° | - | - |
| 1778024281 | 12.22° C | 89% | 928.5 hPa | 0 mm | 1.34 m/s, 298° | - | - |
| 1778024221 | 12.78° C | 89% | 928.6 hPa | 0 mm | 0.45 m/s, 310° | - | - |
| 1778024161 | 12.78° C | 89% | 928.7 hPa | 0 mm | 1.34 m/s, 308° | - | - |
| 1778024101 | 12.78° C | 89% | 928.7 hPa | 0 mm | 1.79 m/s, 312° | - | - |
| 1778024041 | 12.78° C | 88% | 928.7 hPa | 0 mm | 1.34 m/s, 300° | - | - |
| 1778023981 | 12.78° C | 88% | 928.8 hPa | 0 mm | 1.34 m/s, 302° | - | - |
| 1778023921 | 12.78° C | 87% | 928.6 hPa | 0 mm | 0.45 m/s, 311° | - | - |
| 1778023861 | 12.78° C | 87% | 928.7 hPa | 0 mm | 0.89 m/s, 322° | - | - |
| 1778023800 | 12.78° C | 87% | 929 hPa | 0 mm | 0.45 m/s, 300° | - | - |
| 1778023741 | 12.78° C | 86% | 928.9 hPa | 0 mm | 1.34 m/s, 297° | - | - |
| 1778023681 | 12.78° C | 86% | 929 hPa | 0 mm | 0.89 m/s, 291° | - | - |
| 1778023621 | 12.78° C | 85% | 928.7 hPa | 0 mm | 0.89 m/s, 305° | - | - |
| 1778023562 | 12.78° C | 84% | 928.9 hPa | 0 mm | 0.89 m/s, 305° | - | - |
| 1778023501 | 12.78° C | 83% | 928.9 hPa | 0 mm | 0.89 m/s, 283° | - | - |
* Rain since midnight (hover to see other rain measurements)
** Current wind speed in m/s (hover to see current wind gust speed)